EW7837 Weather Reports


time (UTC)temp
F
wind
direction
speed
knots
gust
knots
rain 1hr
in
rain 24hr
in
rain mn
in
humidity
%
barometer
mb
20260502184504 69 238 0.0 0.0 0.00 0.00 0.00 78 1010.6
20260502183002 69 238 0.0 0.0 0.00 0.00 0.00 78 1011.0
20260502181558 68 238 0.0 0.0 0.00 0.00 0.00 77 1011.1
20260502163114 65 238 0.0 0.0 0.00 0.00 0.00 82 1011.6
20260502161555 65 238 0.0 0.0 0.00 0.00 0.00 82 1011.7
20260502151547 64 238 0.0 0.0 0.00 0.00 0.00 84 1011.5
20260502123023 64 238 0.0 0.0 0.00 0.00 0.00 83 1010.5
20260502121521 64 238 0.0 0.0 0.00 0.00 0.00 83 1010.5
20260502114529 64 238 0.0 0.0 0.00 0.00 0.00 83 1010.1
20260502113022 64 238 0.0 0.0 0.00 0.00 0.00 83 1010.2
20260502111517 64 238 0.0 0.0 0.00 0.00 0.00 83 1010.1
20260502110019 64 238 0.0 0.0 0.00 0.00 0.00 82 1010.1
20260502104520 64 238 0.0 0.0 0.00 0.00 0.00 83 1010.1
20260502103016 64 238 0.0 0.0 0.00 0.00 0.00 82 1010.1
20260502101513 64 238 0.0 0.0 0.00 0.00 0.00 82 1010.1
20260502091510 64 238 0.0 0.0 0.00 0.00 0.00 81 1010.1
20260502071502 65 238 0.0 0.0 0.00 0.00 0.00 81 1010.8
20260502070002 65 238 0.0 0.0 0.00 0.00 0.00 81 1010.7
20260502064500 65 238 0.0 0.0 0.00 0.00 0.00 81 1010.6
20260502063131 65 238 0.0 0.0 0.00 0.00 0.00 82 1010.6
20260502061558 65 238 0.0 0.0 0.00 0.00 0.00 82 1010.6
20260502060057 65 238 0.0 0.0 0.00 0.00 0.00 83 1010.8
20260502054557 64 238 0.0 0.0 0.00 0.00 0.00 83 1010.8
20260502053100 64 238 0.0 0.0 0.00 0.00 0.00 83 1010.7
20260502051535 64 238 0.0 0.0 0.00 0.00 0.00 82 1010.8
20260502050034 64 238 0.0 0.0 0.00 0.00 0.00 81 1010.7
20260502044521 64 238 0.0 0.0 0.00 0.00 0.00 81 1010.6
20260502043020 64 238 0.0 0.0 0.00 0.00 0.00 81 1010.6
20260502041526 64 238 0.0 0.0 0.00 0.00 0.00 81 1010.6
20260502040022 64 238 0.0 0.0 0.00 0.00 0.00 81 1010.5
20260502034517 64 238 0.0 0.0 0.00 0.00 0.00 82 1010.3
20260502033025 64 238 0.0 0.0 0.00 0.00 0.00 81 1010.1
20260502031515 64 238 0.0 0.0 0.00 0.00 0.00 81 1010.1
20260502030014 64 238 0.0 0.0 0.00 0.00 0.00 81 1010.1
20260502024514 64 238 0.0 0.0 0.00 0.00 0.00 80 1010.0
20260502023009 65 238 0.0 0.0 0.00 0.00 0.00 78 1010.0
20260502021508 66 238 0.0 0.0 0.00 0.00 0.00 77 1009.6
20260502020008 66 238 0.0 0.0 0.00 0.00 0.00 76 1009.6
20260502014554 67 238 0.0 0.0 0.00 0.00 0.00 75 1009.6
20260502013031 68 238 0.0 0.0 0.00 0.00 0.00 74 1009.5
20260502011529 68 252 0.0 0.0 0.00 0.00 0.00 74 1009.3
20260502010031 69 254 0.0 0.0 0.00 0.00 0.00 72 1009.1
20260502004531 69 235 0.0 0.0 0.00 0.00 0.00 72 1009.1
20260502003026 70 234 0.0 0.0 0.00 0.00 0.00 71 1009.0
20260502001555 70 236 0.0 0.0 0.00 0.00 0.00 71 1009.0
20260502000055 70 242 0.0 0.0 0.00 0.00 0.00 71 1009.0
20260501234552 70 245 0.0 0.0 0.00 0.00 0.00 70 1009.0
20260501233101 71 245 0.0 0.0 0.00 0.00 0.00 69 1009.0
20260501231550 71 265 0.0 0.0 0.00 0.00 0.00 70 1009.1
20260501230050 71 234 0.0 0.0 0.00 0.00 0.00 69 1009.2
20260501224547 71 248 0.0 0.0 0.00 0.00 0.00 69 1009.5
20260501223047 71 261 0.0 0.0 0.00 0.00 0.00 69 1009.7
20260501221545 71 249 0.9 0.0 0.00 0.00 0.00 68 1009.7
20260501220055 71 259 0.9 0.0 0.00 0.00 0.00 67 1009.9
20260501214544 71 275 0.0 0.0 0.00 0.00 0.00 67 1010.0
20260501213047 71 294 0.0 0.0 0.00 0.00 0.00 68 1010.1
20260501211547 73 267 0.0 0.0 0.00 0.00 0.00 65 1010.1
20260501210042 72 259 0.9 0.0 0.00 0.00 0.00 65 1010.2
20260501204552 72 207 0.9 0.0 0.00 0.00 0.00 65 1010.1
20260501203013 73 264 0.0 0.0 0.00 0.00 0.00 66 1010.1
20260501201511 72 257 0.9 0.0 0.00 0.00 0.00 66 1010.2
20260501200040 72 213 0.0 0.0 0.00 0.00 0.00 66 1010.4
20260501194544 72 271 0.9 0.0 0.00 0.00 0.00 65 1010.6
20260501193028 73 263 0.0 0.0 0.00 0.00 0.00 64 1010.6
20260501191557 73 259 0.0 0.0 0.00 0.00 0.00 63 1010.7
20260501190052 72 254 0.0 0.0 0.00 0.00 0.00 65 1011.0